Location: Detroit
(42.3310°N, 83.0460°W)
Time: 23:40:53
(UTC-05:00)

X-37B - Pass Details

Date: 05 October 2022
Orbit: 277 x 277 km, 45.0° (Epoch: 01 November)

Event Time Altitude Azimuth Distance (km) Brightness Sun altitude
Exits shadow 06:53:07 12° 256° (WSW) 985 2.0 -8.3°
Maximum altitude 06:54:37 19° 212° (SSW) 731 1.7 -8.0°
Drops below altitude 10° 06:56:28 10° 162° (SSE) 1,081 3.1 -7.7°
Sets 06:58:41 0° 143° (SE) 1,902 4.7 -7.3°
